{"data":{"norad_id":67305,"intl_designator":"2026-002A","name":"STARLINK-36490","alt_names":[],"object_type":"PAYLOAD","status":"ACTIVE","operator":null,"country":"US","launch_date":"2026-01-04","launch_site_code":"AFETR","launch_vehicle":null,"mission":null,"orbit_class":"UNKNOWN","rcs_meters":null,"size_class":null,"mass_kg":null,"dimensions":null,"purposes":["comms"],"wikipedia_slug":null,"has_3d_model":false,"image_url":null,"decayed_at":null,"tle_current":{"epoch":"2026-09-19T19:56:24.012672Z","epoch_age_seconds":133259,"freshness":"FRESH","line1":"1 67305U 26002A   26262.83083348  .00014811  00000+0  54658-3 0  9991","line2":"2 67305  43.0002 308.5701 0001192 282.6978  77.3740 15.27584018 40835","mean_motion":15.27584018,"eccentricity":0.0001192,"inclination_deg":43.0002,"raan_deg":308.5701,"arg_perigee_deg":282.6978,"mean_anomaly_deg":77.374,"bstar":0.00054658,"rev_number":4083,"period_min":94.266500764084,"perigee_km":482.21921278004,"apogee_km":483.85491667707,"semimajor_km":6861.1740647286,"source":"CELESTRAK","updated_at":"2026-09-20T09:00:43.501827Z"}}}